DW4063 Weather Reports


Display with metric or nautical units.
time (UTC)temp
F
wind
direction
speed
MPH
gust
MPH
rain 1hr
in
rain 24hr
in
rain mn
in
humidity
%
barometer
mb
20260505034516 62 281 1.0 4.0 0.00 0.02 0.02 71 1002.1
20260505033011 62 221 1.0 4.0 0.00 0.02 0.02 71 1002.0
20260505031531 62 214 1.0 4.0 0.00 0.02 0.02 70 1001.6
20260505030024 61 301 1.0 5.0 0.00 0.02 0.02 71 1001.4
20260505023022 63 279 0.0 4.0 0.00 0.02 0.02 69 1001.3
20260505021516 63 194 1.0 4.0 0.00 0.02 0.02 68 1000.7
20260505020013 63 211 2.0 4.0 0.00 0.02 0.02 68 1000.3
20260505014526 63 236 1.0 3.0 0.00 0.02 0.02 70 1000.1
20260505013025 63 207 1.0 6.0 0.00 0.02 0.02 71 999.8
20260505011524 64 184 2.0 7.0 0.00 0.02 0.02 72 999.8
20260505010023 64 218 2.0 7.0 0.00 0.02 0.02 70 999.6
20260505003016 66 223 1.0 4.0 0.00 0.02 0.02 71 999.2
20260505001528 66 221 1.0 7.0 0.01 0.02 0.02 69 999.0
20260505000031 63 161 0.0 2.0 0.01 0.02 0.02 80 999.6
20260504234522 63 100 0.0 2.0 0.01 0.02 0.02 77 998.9
20260504231517 68 314 5.0 14.0 0.00 0.01 0.01 56 999.6
20260504230029 71 191 0.0 1.0 0.01 0.01 0.01 68 997.7
20260504224534 72 138 0.0 6.0 0.01 0.01 0.01 59 998.2
20260504223025 72 197 2.0 8.0 0.01 0.01 0.01 59 998.8
20260504221526 74 197 3.0 14.0 0.01 0.01 0.01 54 998.9
20260504220024 77 215 1.0 12.0 0.00 0.00 0.00 48 998.8
20260504214535 79 190 4.0 12.0 0.00 0.00 0.00 36 998.6
20260504213029 79 200 1.0 8.0 0.00 0.00 0.00 38 998.6
20260504211518 79 177 3.0 12.0 0.00 0.00 0.00 35 999.0
20260504210026 79 193 3.0 9.0 0.00 0.00 0.00 34 999.2
20260504203006 81 197 5.0 15.0 0.00 0.00 0.00 34 999.4
20260504201524 81 306 3.0 10.0 0.00 0.00 0.00 35 999.5
20260504194520 78 255 2.0 10.0 0.00 0.00 0.00 38 1000.1
20260504193016 79 198 4.0 13.0 0.00 0.00 0.00 35 1000.3
20260504191513 80 223 4.0 12.0 0.00 0.00 0.00 36 1000.2
20260504190008 80 219 5.0 12.0 0.00 0.00 0.00 34 1000.3
20260504183026 79 323 2.0 12.0 0.00 0.00 0.00 30 1000.5
20260504181520 78 205 3.0 12.0 0.00 0.00 0.00 32 1000.5
20260504174516 77 189 3.0 12.0 0.00 0.00 0.00 35 1001.1
20260504171524 75 212 3.0 9.0 0.00 0.00 0.00 37 1001.5
20260504081526 46 16 0.0 0.0 0.00 0.07 0.00 86 1004.9
20260504050024 53 203 0.0 1.0 0.00 0.07 0.00 76 1006.6
20260504044523 53 203 0.0 1.0 0.00 0.07 0.07 75 1006.6
20260504043044 53 203 0.0 2.0 0.00 0.07 0.07 74 1006.6
20260504041534 54 215 0.0 2.0 0.00 0.07 0.07 74 1006.5
20260504040028 54 221 0.0 2.0 0.00 0.07 0.07 74 1006.5